Location: Newark
(50.0306°N, 2.3272°E)
Time: 12:08:38
(UTC+00:00)

Vanguard 1 Rocket - Pass Details

Date: 18 December 2019
Orbit: 650 x 4226 km, 34.3° (Epoch: 21 January)

Event Time Altitude Azimuth Distance (km) Brightness Sun altitude
Rises 01:09:25 0° 271° (W) 5,998 - -58.9°
Reaches altitude 10° 01:18:31 10° 238° (WSW) 3,842 - -57.9°
Maximum altitude 01:19:52 10° 229° (SW) 3,636 - -57.8°
Drops below altitude 10° 01:21:09 10° 221° (SW) 3,500 - -57.6°
Sets 01:26:58 0° 181° (S) 3,734 - -57.0°
